[[{"header":{"parameterUnit":"m.s-1","parameterCategory":1,"la1":30.2991,"la2":30.254,"lo1":-89.0895,"lo2":-89.0444,"dy":0.0017,"dx":0.0017,"nx":28,"ny":28,"refTime":"2024-07-09T03:00:00:Z","depth":0,"parameterNumber":2,"parameterNumberName":"U-component_of_WINDS"},"data":[0,0,0,0,0,0,0,0,0,0,0,0,0,0,0,0,0,0,0,0,0,0,0,0,0,0,0,0,0,0,0,0,0,0,0,0,0,0,0,0,0,0,0,0,0,0,0,0,0,0,0,0,0,0,0,0,0,0,4.5056,4.5057,0,4.5151,4.5152,4.5153,4.5091,4.5088,4.5086,4.5083,4.518,4.5185,4.519,0,0,0,0,0,0,0,0,0,0,0,0,0,4.4816,4.4821,4.5056,4.5057,4.5058,4.5151,4.5152,4.5154,4.5092,4.5088,4.5085,4.5082,4.5178,4.5184,4.5191,0,0,0,0,0,0,0,0,0,0,0,0,0,4.4917,4.4822,4.5055,4.5038,4.5038,4.5151,4.5152,4.5154,4.5093,4.5088,4.5084,4.508,4.5176,4.5184,4.5191,4.5326,0,0,4.5216,4.5219,0,0,0,0,0,0,0,0,4.4911,4.4925,4.504,4.504,4.5039,4.5105,4.5103,4.5212,4.5094,4.5072,4.5083,4.5078,4.5158,4.5167,4.5195,4.5331,4.5335,4.5216,4.5221,4.5224,4.5227,0,0,0,0,0,0,0,4.4904,4.4921,4.5093,4.5041,4.5041,4.5025,4.5034,4.5124,4.5138,4.5073,4.5069,4.5081,4.5157,4.5187,4.5197,4.5336,4.5216,4.5223,4.5228,4.5231,4.5583,4.5587,0,0,0,0,0,0,4.4899,4.4916,4.509,4.5096,4.4963,4.5033,4.5043,4.5088,4.5137,4.514,4.5085,4.5078,4.5176,4.5187,4.52,4.5357,4.5224,4.5232,4.5236,4.5578,4.5584,4.5589,0,0,0,0,0,0,4.4894,4.4915,4.5086,4.5005,4.5025,4.5041,4.5092,4.5092,4.5122,4.5146,4.5147,4.5113,4.5173,4.5189,4.5294,4.536,4.5235,4.5242,4.5573,4.558,4.5586,4.5676,0,0,0,0,0,0,4.4887,4.4914,4.4966,4.5006,4.503,4.5181,4.5096,4.5097,4.5136,4.5128,4.5172,4.5176,4.5171,4.5283,4.5302,4.5369,4.5249,4.5567,4.5576,4.5584,4.5667,4.5685,4.57,0,0,0,0,0,4.4879,4.4988,4.4969,4.4991,4.5096,4.5185,4.5198,4.5191,4.5142,4.5193,4.5208,4.5174,4.535,4.5294,4.5315,4.5385,4.5563,4.5574,4.5584,4.566,4.5682,4.57,0,0,0,0,0,0,4.4956,4.4993,4.4973,4.5098,4.5139,4.5174,4.5239,4.5215,4.527,4.526,4.5248,4.5258,4.5368,4.5387,4.5324,4.5516,4.5448,4.5464,4.5499,4.552,4.5536,4.5528,4.5255,0,0,0,0,0,4.4987,4.5057,4.5086,4.5194,4.5215,4.5224,4.5262,4.5253,4.5294,4.5311,4.5333,4.5374,4.5438,4.548,4.5541,4.567,4.5677,4.5728,4.5745,4.5758,4.5771,4.5837,4.5859,4.5623,4.5623,4.5623,0,0,4.5053,4.5082,4.5127,4.521,4.524,4.5311,4.5239,4.5318,4.5369,4.5323,4.5423,4.5441,4.5485,4.5602,4.5655,4.5622,4.5838,4.5772,4.5782,4.5788,4.585,4.5872,4.5892,4.563,4.5629,4.5628,0,0,4.5208,4.5239,4.533,4.5362,4.5408,4.5413,4.5435,4.5473,4.5483,4.5583,4.5549,4.561,4.5721,4.5753,4.5784,4.5948,4.5918,4.5969,4.6055,4.6119,4.6138,4.6154,4.6209,4.623,4.5981,4.5982,4.5982,0,4.5284,4.5391,4.5381,4.5461,4.5497,4.5458,4.5549,4.5579,4.5643,4.5668,4.563,4.5767,4.5794,4.5916,4.5956,4.5984,4.6006,4.5963,4.6136,4.6152,4.6167,4.622,4.6241,4.5987,4.5987,4.5986,4.5985,0,4.5479,4.5554,4.5622,4.5683,4.5727,4.5813,4.5814,4.5859,4.5845,4.5853,4.5954,4.5985,4.605,4.6078,4.6067,4.6198,4.6175,4.6138,4.6069,4.6195,4.6245,4.6265,4.5995,4.5993,4.5992,4.599,0,0,4.5687,4.574,4.5765,4.579,4.5837,4.5893,4.5976,4.6038,4.6076,4.6121,4.6188,4.6282,4.6245,4.628,4.6271,4.6328,4.6452,4.6283,4.6283,4.631,4.6595,4.6622,4.6645,4.6433,4.6437,4.644,4.659,0,4.5842,4.5987,4.5979,4.6113,4.6179,4.6141,4.6213,4.6248,4.6257,4.6314,4.6324,4.6389,4.6338,4.6358,4.6413,4.6426,4.6509,4.6415,4.6493,4.6496,4.6481,4.6672,4.6701,4.6841,4.661,4.6613,4.6615,0,4.6044,4.6094,4.6235,4.6268,4.6296,4.636,4.6415,4.647,4.6508,4.6511,4.6549,4.6529,4.661,4.6541,4.6651,4.6587,4.6619,4.6629,4.6634,4.664,4.6562,4.6679,4.6886,4.6906,4.6646,4.6644,4.6642,0,4.6176,4.628,4.6376,4.64,4.6442,4.6488,4.6507,4.6542,4.6579,4.6626,4.6649,4.6707,4.6737,4.6781,4.6776,4.6727,4.6887,4.6818,4.6889,4.6889,4.6923,4.6921,4.7135,4.6948,4.6948,4.6947,4.6947,0,4.635,4.6437,4.6436,4.6495,4.659,4.6579,4.6673,4.6688,4.6718,4.6778,4.675,4.6806,4.6798,4.6854,4.6852,4.6941,4.6956,4.6959,4.6956,4.696,4.6959,4.6979,4.6968,4.6953,4.6952,4.6951,4.695,0,4.6514,4.6517,4.6619,4.665,4.666,4.6729,4.6754,4.6809,4.6815,4.6891,4.6908,4.6918,4.6982,4.6982,4.7057,4.7054,4.7163,4.7151,4.715,4.7147,4.7216,4.7209,4.7449,4.7479,4.7275,4.7277,4.7278,0,4.6623,4.6689,4.6726,4.6764,4.6786,4.6848,4.6885,4.6876,4.6916,4.6963,4.7011,4.7073,4.7121,4.7226,4.7239,4.7294,4.7282,4.7362,4.729,4.729,4.7279,4.7274,4.7279,4.7376,4.7378,4.738,4.7381,0,4.6815,4.6813,4.6868,4.6922,4.6967,4.7009,4.7049,4.7081,4.7076,4.7122,4.7187,4.7225,4.7299,4.7359,4.7413,4.7431,4.7405,4.7404,4.7423,4.7426,4.7421,4.7421,4.7185,4.7398,4.7396,4.7395,4.7394,4.7394,4.6953,4.7008,4.7042,4.7103,4.7131,4.7168,4.722,4.7232,4.7286,4.7345,4.7337,4.7409,4.7442,4.7511,4.7534,4.7589,4.7561,4.7589,4.7596,4.7602,4.7608,4.7414,4.7599,4.7599,4.7598,4.7598,4.7598,0,4.7141,4.7161,4.7217,4.7272,4.7319,4.729,4.7331,4.7372,4.7435,4.7469,4.7517,4.759,4.7648,4.7665,4.772,4.776,4.7749,4.7775,4.7771,4.7775,4.7632,4.7609,4.7783,4.7783,4.7783,4.7782,4.7782,4.7782,4.7245,4.7335,4.7336,4.7439,4.7458,4.7528,4.7553,4.7586,4.7612,4.7695,4.7742,4.7753,4.7779,4.7835,4.7886,4.7889,4.791,4.794,4.7938,4.7804,4.7785,4.7767,4.7745,4.7945,4.7945,4.8076,4.8077,4.8078]},{"header":{"parameterUnit":"m.s-1","parameterCategory":1,"la1":30.2991,"la2":30.254,"lo1":-89.0895,"lo2":-89.0444,"dy":0.0017,"dx":0.0017,"nx":28,"ny":28,"refTime":"2024-07-09T03:00:00:Z","depth":0,"parameterNumber":3,"parameterNumberName":"V-component_of_WINDS"},"data":[0,0,0,0,0,0,0,0,0,0,0,0,0,0,0,0,0,0,0,0,0,0,0,0,0,0,0,0,0,0,0,0,0,0,0,0,0,0,0,0,0,0,0,0,0,0,0,0,0,0,0,0,0,0,0,0,0,0,6.3567,6.3568,0,6.369,6.3692,6.3693,6.3652,6.365,6.3647,6.3644,6.3766,6.3771,6.3777,0,0,0,0,0,0,0,0,0,0,0,0,0,6.3289,6.3294,6.3566,6.3568,6.357,6.369,6.3692,6.3693,6.3653,6.3649,6.3646,6.3643,6.3764,6.377,6.3777,0,0,0,0,0,0,0,0,0,0,0,0,0,6.341,6.3296,6.3566,6.3564,6.3565,6.369,6.3692,6.3694,6.3653,6.3649,6.3645,6.3642,6.3761,6.377,6.3778,6.3911,0,0,6.3804,6.3808,0,0,0,0,0,0,0,0,6.3404,6.3421,6.3563,6.3564,6.3566,6.3652,6.3638,6.3766,6.3654,6.362,6.3644,6.364,6.3731,6.3741,6.3773,6.3916,6.3922,6.3805,6.381,6.3814,6.3816,0,0,0,0,0,0,0,6.3395,6.3415,6.3615,6.3565,6.3567,6.3555,6.3567,6.3662,6.3696,6.3622,6.362,6.3635,6.3731,6.3765,6.3776,6.3923,6.3805,6.3812,6.3818,6.3821,6.4178,6.4182,0,0,0,0,0,0,6.3387,6.3408,6.3611,6.3619,6.3473,6.3563,6.3577,6.3628,6.3695,6.3701,6.3639,6.3633,6.3752,6.3766,6.378,6.3937,6.3814,6.3822,6.3827,6.4174,6.4179,6.4184,0,0,0,0,0,0,6.3381,6.3405,6.3606,6.3513,6.3538,6.3572,6.3629,6.3633,6.3667,6.3707,6.3712,6.3668,6.375,6.3768,6.3878,6.3941,6.3826,6.3834,6.4169,6.4175,6.4181,6.4255,0,0,0,0,0,0,6.3373,6.3403,6.3456,6.3515,6.3543,6.3705,6.3633,6.3638,6.3683,6.3676,6.3736,6.3742,6.3748,6.3866,6.3887,6.3951,6.384,6.4163,6.4172,6.4179,6.4247,6.4263,6.4277,0,0,0,0,0,6.3363,6.3471,6.3459,6.3484,6.361,6.3709,6.3725,6.3731,6.3688,6.374,6.3765,6.374,6.3931,6.3877,6.3901,6.3968,6.4159,6.4169,6.4179,6.424,6.426,6.4276,0,0,0,0,0,0,6.3418,6.3479,6.3466,6.3596,6.3648,6.3702,6.3767,6.3752,6.3816,6.3807,6.381,6.3824,6.3937,6.3964,6.3903,6.4098,6.4038,6.4053,6.4077,6.4096,6.4111,6.4101,6.3847,0,0,0,0,0,6.3445,6.3523,6.3571,6.3681,6.3708,6.3733,6.3777,6.3777,6.383,6.3851,6.3884,6.3935,6.4005,6.4052,6.412,6.4251,6.4261,6.4308,6.4323,6.4335,6.4348,6.4416,6.4437,6.4216,6.4216,6.4216,0,0,6.3502,6.3545,6.3594,6.3693,6.3733,6.3811,6.3752,6.3837,6.3894,6.3863,6.397,6.3996,6.4052,6.4172,6.4227,6.4198,6.4411,6.4348,6.4357,6.4363,6.4428,6.4449,6.4467,6.4222,6.4221,6.422,0,0,6.3645,6.3687,6.3782,6.3823,6.3885,6.3901,6.3924,6.398,6.3996,6.4103,6.4081,6.4147,6.4271,6.4311,6.4348,6.4504,6.4482,6.4526,6.4603,6.467,6.4687,6.4703,6.4756,6.4776,6.4538,6.4538,6.4538,0,6.3708,6.3826,6.3833,6.392,6.3963,6.394,6.4034,6.4074,6.4153,6.4183,6.4149,6.4302,6.4338,6.4466,6.4504,6.4536,6.4559,6.4519,6.4685,6.47,6.4714,6.4766,6.4786,6.4543,6.4542,6.4542,6.4542,0,6.3899,6.3981,6.405,6.4129,6.418,6.4271,6.4288,6.4339,6.4334,6.4352,6.446,6.4503,6.4577,6.4608,6.4604,6.4735,6.4715,6.4683,6.4623,6.474,6.4788,6.4808,6.455,6.4548,6.4547,6.4545,0,0,6.4081,6.4161,6.4186,6.422,6.4286,6.4348,6.4436,6.4511,6.4553,6.4608,6.468,6.4784,6.4754,6.4796,6.4796,6.4855,6.4973,6.4815,6.4817,6.4841,6.5117,6.5139,6.5162,6.4959,6.4963,6.4966,6.5111,0,6.4228,6.4385,6.4392,6.4534,6.4608,6.4586,6.4662,6.4709,6.4728,6.4792,6.4812,6.4885,6.4842,6.4866,6.4923,6.4946,6.5028,6.4936,6.5024,6.5027,6.5009,6.5187,6.5212,6.5347,6.513,6.5133,6.5136,0,6.4421,6.4483,6.4633,6.4685,6.4716,6.4785,6.4853,6.4915,6.4966,6.4976,6.5022,6.5013,6.51,6.5037,6.5156,6.5093,6.5129,6.5146,6.5151,6.5158,6.5088,6.5198,6.539,6.541,6.5166,6.5163,6.5161,0,6.4536,6.4657,6.4761,6.4792,6.4856,6.4905,6.4933,6.4981,6.5025,6.5083,6.5111,6.5178,6.5214,6.5265,6.5274,6.5228,6.5392,6.533,6.54,6.54,6.5435,6.5432,6.5634,6.5461,6.546,6.546,6.546,0,6.4699,6.4791,6.4814,6.4878,6.4979,6.4985,6.5084,6.5109,6.5151,6.5218,6.5202,6.5265,6.5273,6.5336,6.5343,6.5439,6.5456,6.5464,6.5464,6.5465,6.5464,6.5488,6.5478,6.5465,6.5464,6.5463,6.5462,0,6.4845,6.4864,6.4976,6.5028,6.5043,6.5115,6.5158,6.5218,6.5235,6.5319,6.5339,6.5365,6.5439,6.5453,6.554,6.5544,6.5658,6.5649,6.5641,6.5639,6.5707,6.57,6.5931,6.596,6.5769,6.5771,6.5772,0,6.4947,6.5017,6.5076,6.512,6.5152,6.5223,6.5267,6.5275,6.5321,6.5384,6.5436,6.5509,6.5567,6.5685,6.5711,6.5776,6.5768,6.5845,6.5778,6.5775,6.5767,6.5763,6.5768,6.5857,6.5859,6.5861,6.5862,0,6.5125,6.5131,6.5197,6.5265,6.5319,6.5373,6.5424,6.546,6.5474,6.5527,6.5603,6.5648,6.5737,6.5808,6.5873,6.59,6.5883,6.5883,6.5902,6.5903,6.5894,6.5898,6.5674,6.5878,6.5876,6.5875,6.5874,6.5874,6.5251,6.5311,6.5362,6.5435,6.5474,6.5522,6.558,6.5605,6.5669,6.5743,6.5743,6.5825,6.5872,6.5958,6.5989,6.6052,6.6027,6.6056,6.6062,6.6069,6.6075,6.5885,6.6064,6.6063,6.6063,6.6063,6.6062,0,6.5427,6.5458,6.5525,6.5598,6.5654,6.5635,6.5689,6.5737,6.5811,6.5857,6.5915,6.6,6.6069,6.61,6.6166,6.6211,6.6204,6.6228,6.6224,6.623,6.6094,6.607,6.6232,6.6232,6.6232,6.6232,6.6231,6.6231,6.5525,6.5626,6.5637,6.5756,6.5786,6.5868,6.59,6.5943,6.598,6.6077,6.6134,6.6154,6.6193,6.6262,6.6323,6.633,6.6354,6.6381,6.6385,6.6257,6.624,6.6223,6.62,6.6387,6.6387,6.6515,6.6516,6.6517]}]]